Time,TemperatureF,DewpointF,PressureIn,WindDirection,WindDirectionDegrees,WindSpeedMPH,WindSpeedGustMPH,Humidity,HourlyPrecipIn,Conditions,Clouds,dailyrainin,SoftwareType,DateUTC
2013-05-19 00:00:00,40.0,-99.9,-100.00,SW,220,3.0,-999.0,-999,-99.99,,,-99.99,,2013-05-19 07:00:00,
2013-05-19 01:00:00,39.0,-99.9,-100.00,SW,232,5.0,-999.0,-999,-99.99,,,-99.99,,2013-05-19 08:00:00,
2013-05-19 02:00:00,38.0,-99.9,-100.00,West,259,3.0,-999.0,-999,-99.99,,,-99.99,,2013-05-19 09:00:00,
2013-05-19 03:00:00,38.0,-99.9,-100.00,SW,236,5.0,-999.0,-999,-99.99,,,-99.99,,2013-05-19 10:00:00,
2013-05-19 04:00:00,38.0,-99.9,-100.00,WSW,249,5.0,-999.0,-999,-99.99,,,-99.99,,2013-05-19 11:00:00,
2013-05-19 05:00:00,36.0,-99.9,-100.00,West,261,2.0,-999.0,-999,-99.99,,,-99.99,,2013-05-19 12:00:00,
2013-05-19 06:00:00,35.0,-99.9,-100.00,WSW,255,3.0,-999.0,-999,-99.99,,,-99.99,,2013-05-19 13:00:00,
2013-05-19 07:00:00,37.0,-99.9,-100.00,West,280,2.0,-999.0,-999,-99.99,,,-99.99,,2013-05-19 14:00:00,
2013-05-19 08:00:00,43.0,-99.9,-100.00,WSW,246,5.0,-999.0,-999,-99.99,,,-99.99,,2013-05-19 15:00:00,
2013-05-19 09:00:00,46.0,-99.9,-100.00,NNW,342,3.0,-999.0,-999,-99.99,,,-99.99,,2013-05-19 16:00:00,
2013-05-19 10:00:00,49.0,-99.9,-100.00,NW,308,3.0,-999.0,-999,-99.99,,,-99.99,,2013-05-19 17:00:00,
2013-05-19 12:00:00,54.0,-99.9,-100.00,North,0,6.0,-999.0,-999,-99.99,,,-99.99,,2013-05-19 19:00:00,
2013-05-19 13:00:00,56.0,-99.9,-100.00,North,356,7.0,-999.0,-999,-99.99,,,-99.99,,2013-05-19 20:00:00,
2013-05-19 14:00:00,57.0,-99.9,-100.00,North,356,7.0,-999.0,-999,-99.99,,,-99.99,,2013-05-19 21:00:00,
2013-05-19 15:00:00,60.0,-99.9,-100.00,NNW,348,8.0,-999.0,-999,-99.99,,,-99.99,,2013-05-19 22:00:00,
2013-05-19 16:00:00,61.0,-99.9,-100.00,NNW,331,8.0,-999.0,-999,-99.99,,,-99.99,,2013-05-19 23:00:00,
2013-05-19 17:00:00,61.0,-99.9,-100.00,NNW,330,8.0,-999.0,-999,-99.99,,,-99.99,,2013-05-20 00:00:00,
2013-05-19 19:00:00,59.0,-99.9,-100.00,North,4,8.0,-999.0,-999,-99.99,,,-99.99,,2013-05-20 02:00:00,
2013-05-19 20:00:00,56.0,-99.9,-100.00,North,4,7.0,-999.0,-999,-99.99,,,-99.99,,2013-05-20 03:00:00,
2013-05-19 21:00:00,52.0,-99.9,-100.00,North,357,5.0,-999.0,-999,-99.99,,,-99.99,,2013-05-20 04:00:00,
2013-05-19 22:00:00,48.0,-99.9,-100.00,NNW,345,2.0,-999.0,-999,-99.99,,,-99.99,,2013-05-20 05:00:00,
2013-05-19 23:00:00,45.0,-99.9,-100.00,South,175,1.0,-999.0,-999,-99.99,,,-99.99,,2013-05-20 06:00:00,